| time (UTC) | temp F | wind direction | speed knots | gust knots | rain 1hr in | rain 24hr in | rain mn in | humidity % | barometer mb |
| 20260504043525 | 36 | 0.0 | 0.0 | 0.00 | 0.00 | 0.00 | 71 | 1009.4 | |
| 20260504042529 | 36 | 0.0 | 0.0 | 0.00 | 0.00 | 0.00 | 71 | 1009.4 | |
| 20260504041532 | 36 | 0.0 | 0.0 | 0.00 | 0.00 | 0.00 | 71 | 1009.4 | |
| 20260504040537 | 36 | 0.0 | 0.0 | 0.00 | 0.00 | 0.00 | 71 | 1009.3 | |
| 20260504035520 | 35 | 0.0 | 0.0 | 0.00 | 0.00 | 0.00 | 70 | 1009.2 | |
| 20260504034524 | 35 | 0.0 | 0.0 | 0.00 | 0.00 | 0.00 | 70 | 1009.2 | |
| 20260504033527 | 36 | 0.0 | 0.0 | 0.00 | 0.00 | 0.00 | 69 | 1009.2 | |
| 20260504032530 | 36 | 0.0 | 0.0 | 0.00 | 0.00 | 0.00 | 69 | 1009.2 | |
| 20260504031516 | 36 | 0.0 | 0.0 | 0.00 | 0.00 | 0.00 | 69 | 1009.2 | |
| 20260504030519 | 36 | 0.0 | 0.0 | 0.00 | 0.00 | 0.00 | 68 | 1009.2 | |
| 20260504025522 | 36 | 0.0 | 0.0 | 0.00 | 0.00 | 0.00 | 66 | 1009.2 | |
| 20260504024546 | 37 | 0.0 | 0.0 | 0.00 | 0.00 | 0.00 | 64 | 1009.0 | |
| 20260504023543 | 37 | 0.0 | 0.0 | 0.00 | 0.00 | 0.00 | 64 | 1009.1 | |
| 20260504022520 | 38 | 0.0 | 0.0 | 0.00 | 0.00 | 0.00 | 64 | 1009.0 | |
| 20260504021517 | 38 | 0.0 | 0.0 | 0.00 | 0.00 | 0.00 | 63 | 1009.0 | |
| 20260504020535 | 39 | 0.0 | 0.0 | 0.00 | 0.00 | 0.00 | 61 | 1008.9 | |
| 20260504015524 | 39 | 0.0 | 0.0 | 0.00 | 0.00 | 0.00 | 61 | 1008.9 | |
| 20260504014607 | 40 | 0.0 | 0.0 | 0.00 | 0.00 | 0.00 | 60 | 1008.7 | |
| 20260504013530 | 40 | 0.0 | 0.0 | 0.00 | 0.00 | 0.00 | 59 | 1008.7 | |
| 20260504012516 | 41 | 0.0 | 0.0 | 0.00 | 0.00 | 0.00 | 55 | 1008.6 | |
| 20260504011519 | 42 | 0.0 | 0.0 | 0.00 | 0.00 | 0.00 | 55 | 1008.5 | |
| 20260504010522 | 43 | 0.0 | 0.0 | 0.00 | 0.00 | 0.00 | 52 | 1008.4 | |
| 20260504005606 | 44 | 0.0 | 0.0 | 0.00 | 0.00 | 0.00 | 50 | 1008.3 | |
| 20260504004549 | 45 | 0.0 | 0.0 | 0.00 | 0.00 | 0.00 | 49 | 1008.1 | |
| 20260504003532 | 46 | 0.0 | 0.0 | 0.00 | 0.00 | 0.00 | 49 | 1008.0 | |
| 20260504002517 | 47 | 0.0 | 0.0 | 0.00 | 0.00 | 0.00 | 45 | 1007.9 | |
| 20260504001521 | 48 | 0.0 | 0.0 | 0.00 | 0.00 | 0.00 | 42 | 1007.7 | |
| 20260504000524 | 48 | 0.0 | 0.0 | 0.00 | 0.00 | 0.00 | 42 | 1007.6 | |
| 20260503235527 | 49 | 281 | 0.0 | 2.6 | 0.00 | 0.00 | 0.00 | 40 | 1007.5 |
| 20260503234551 | 49 | 225 | 0.0 | 2.6 | 0.00 | 0.00 | 0.00 | 39 | 1007.4 |
| 20260503233516 | 50 | 320 | 0.9 | 2.6 | 0.00 | 0.00 | 0.00 | 38 | 1007.2 |
| 20260503232519 | 50 | 9 | 1.7 | 4.3 | 0.00 | 0.00 | 0.00 | 38 | 1007.1 |
| 20260503231523 | 51 | 218 | 0.9 | 4.3 | 0.00 | 0.00 | 0.00 | 37 | 1006.9 |
| 20260503230546 | 51 | 267 | 4.3 | 9.6 | 0.00 | 0.00 | 0.00 | 36 | 1006.8 |
| 20260503225523 | 52 | 205 | 1.7 | 8.7 | 0.00 | 0.00 | 0.00 | 36 | 1006.7 |
| 20260503224520 | 53 | 117 | 1.7 | 5.2 | 0.00 | 0.00 | 0.00 | 35 | 1006.6 |
| 20260503223517 | 53 | 36 | 1.7 | 5.2 | 0.00 | 0.00 | 0.00 | 36 | 1006.5 |
| 20260503222515 | 52 | 0.0 | 0.0 | 0.00 | 0.00 | 0.00 | 36 | 1006.4 | |
| 20260503221524 | 52 | 76 | 0.9 | 3.5 | 0.00 | 0.00 | 0.00 | 36 | 1006.3 |
| 20260503220528 | 52 | 57 | 2.6 | 4.3 | 0.00 | 0.00 | 0.00 | 35 | 1006.3 |
| 20260503215531 | 52 | 286 | 3.5 | 7.0 | 0.00 | 0.00 | 0.00 | 35 | 1006.2 |
| 20260503213519 | 53 | 226 | 2.6 | 6.1 | 0.00 | 0.00 | 0.00 | 34 | 1006.1 |
| 20260503212542 | 53 | 260 | 3.5 | 7.8 | 0.00 | 0.00 | 0.00 | 34 | 1005.7 |
| 20260503211526 | 53 | 164 | 1.7 | 5.2 | 0.00 | 0.00 | 0.00 | 34 | 1005.6 |
| 20260503210529 | 54 | 31 | 3.5 | 6.1 | 0.00 | 0.00 | 0.00 | 34 | 1005.5 |
| 20260503205532 | 53 | 325 | 3.5 | 6.1 | 0.00 | 0.00 | 0.00 | 34 | 1005.3 |
| 20260503204517 | 53 | 21 | 2.6 | 7.8 | 0.00 | 0.00 | 0.00 | 35 | 1005.4 |
| 20260503203521 | 53 | 333 | 0.9 | 4.3 | 0.00 | 0.00 | 0.00 | 35 | 1005.3 |
| 20260503202524 | 53 | 217 | 3.5 | 5.2 | 0.00 | 0.00 | 0.00 | 36 | 1005.1 |
| 20260503201528 | 53 | 269 | 2.6 | 6.1 | 0.00 | 0.00 | 0.00 | 36 | 1005.0 |
| 20260503200531 | 53 | 14 | 1.7 | 4.3 | 0.00 | 0.00 | 0.00 | 37 | 1005.0 |
| 20260503195516 | 53 | 15 | 2.6 | 5.2 | 0.00 | 0.00 | 0.00 | 38 | 1005.1 |
| 20260503194519 | 53 | 269 | 3.5 | 5.2 | 0.00 | 0.00 | 0.00 | 38 | 1005.2 |
| 20260503193523 | 53 | 250 | 2.6 | 7.0 | 0.00 | 0.00 | 0.00 | 39 | 1005.2 |
| 20260503192526 | 53 | 301 | 4.3 | 7.8 | 0.00 | 0.00 | 0.00 | 39 | 1005.1 |
| 20260503191523 | 54 | 4 | 3.5 | 7.0 | 0.00 | 0.00 | 0.00 | 39 | 1005.1 |
| 20260503190520 | 54 | 25 | 2.6 | 7.0 | 0.00 | 0.00 | 0.00 | 39 | 1005.1 |
| 20260503185518 | 54 | 82 | 2.6 | 3.5 | 0.00 | 0.00 | 0.00 | 38 | 1005.4 |
| 20260503184515 | 54 | 338 | 0.9 | 5.2 | 0.00 | 0.00 | 0.00 | 39 | 1005.4 |
| 20260503183544 | 53 | 15 | 2.6 | 7.8 | 0.00 | 0.00 | 0.00 | 39 | 1005.6 |
| 20260503182527 | 52 | 23 | 1.7 | 3.5 | 0.00 | 0.00 | 0.00 | 41 | 1005.6 |
| 20260503181531 | 51 | 356 | 2.6 | 4.3 | 0.00 | 0.00 | 0.00 | 42 | 1005.7 |
| 20260503180616 | 51 | 60 | 4.3 | 7.8 | 0.00 | 0.00 | 0.00 | 46 | 1005.6 |
| 20260503175540 | 51 | 310 | 4.3 | 6.1 | 0.00 | 0.00 | 0.00 | 46 | 1005.4 |
| 20260503174523 | 53 | 249 | 3.5 | 10.4 | 0.00 | 0.00 | 0.00 | 46 | 1005.3 |
| 20260503173526 | 51 | 292 | 3.5 | 6.1 | 0.00 | 0.00 | 0.00 | 46 | 1005.2 |
| 20260503172610 | 51 | 269 | 3.5 | 8.7 | 0.00 | 0.00 | 0.00 | 48 | 1005.2 |
| 20260503171515 | 51 | 355 | 3.5 | 5.2 | 0.00 | 0.00 | 0.00 | 47 | 1005.2 |
| 20260503170518 | 51 | 340 | 1.7 | 4.3 | 0.00 | 0.00 | 0.00 | 49 | 1005.2 |
| 20260503150515 | 46 | 279 | 1.7 | 5.2 | 0.00 | 0.00 | 0.00 | 71 | 1005.6 |
| 20260503130524 | 46 | 358 | 1.7 | 3.5 | 0.00 | 0.00 | 0.00 | 70 | 1006.0 |
| 20260503110528 | 42 | 0.0 | 0.0 | 0.00 | 0.00 | 0.00 | 81 | 1006.4 | |
| 20260503081523 | 42 | 0.0 | 0.0 | 0.00 | 0.00 | 0.00 | 81 | 1007.5 | |
| 20260503080515 | 42 | 0.0 | 0.0 | 0.00 | 0.00 | 0.00 | 81 | 1007.5 | |
| 20260503072528 | 42 | 0.0 | 0.0 | 0.00 | 0.00 | 0.00 | 81 | 1007.8 | |
| 20260503071551 | 42 | 0.0 | 0.0 | 0.00 | 0.00 | 0.00 | 81 | 1007.9 | |
| 20260503070516 | 42 | 0.0 | 0.0 | 0.00 | 0.00 | 0.00 | 81 | 1008.1 | |
| 20260503054525 | 44 | 0.0 | 0.0 | 0.00 | 0.00 | 0.00 | 81 | 1009.0 | |
| 20260503053529 | 44 | 0.0 | 0.0 | 0.00 | 0.00 | 0.00 | 81 | 1009.1 | |
| 20260503052531 | 44 | 0.0 | 0.0 | 0.00 | 0.00 | 0.00 | 81 | 1009.3 | |
| 20260503051517 | 45 | 0.0 | 0.0 | 0.00 | 0.00 | 0.00 | 81 | 1009.3 | |
| 20260503050520 | 45 | 0.0 | 0.0 | 0.00 | 0.00 | 0.00 | 81 | 1009.3 | |
| 20260503045523 | 45 | 0.0 | 0.0 | 0.00 | 0.00 | 0.00 | 81 | 1009.6 | |
| 20260503044527 | 46 | 0.0 | 0.0 | 0.00 | 0.00 | 0.00 | 81 | 1009.7 |